www.pogodaiklimat.ru

Погода и климат >> Архив погоды >> Южная Африка >> Malmesbury


ПОГОДА в Malmesbury

  • Прогноз погоды в Malmesbury
  • Монитор погоды в Malmesbury
  • Климат города

АРХИВ ПОГОДЫ в Malmesbury

Время (UTC), дата Ветер
(напр.,м/с)
 
Видим.   Явления Облачность Т
(С)
Тd
(С)
f
(%)
Тe
(С)
Тes
(С)
Комфортность P
(гПа)
Po
(гПа)
Тmin
(С)
Tmax
(С)
R
(мм)
R24
(мм)
S
(см)
03 9.07 СВ 2 н/о н/о +8.5 +5.7 83 +7 +7 855.6 1009.8 +7.2 +25.4
06 9.07 штиль 0 н/о н/о +6.3 +4.4 88 +5 +5 855.0 1010.4 +6.3
09 9.07 СВ 1 н/о н/о +22.9 +10.5 45 +25 +25 комфорт 864.0 1010.8 +6.3 +22.9
12 9.07 СЗ 2 н/о н/о +26.5 +10.8 37 +27 +27 жарко 864.6 1009.4 +6.3 +26.5
15 9.07 С 1 н/о н/о +22.2 +11.7 51 +24 +24 комфорт 862.0 1009.0 +22.2 +27.2
18 9.07 штиль 0 н/о н/о +11.8 +9.7 87 +11 +11 857.7 1010.3 +11.7 +27.2
21 9.07 штиль 0 н/о н/о +9.1 +7.7 91 +8 +8 856.7 1010.7 +9.1 +27.2
00 10.07 СВ 1 н/о н/о +8.3 +7.0 92 +7 +7 856.0 1010.4 +7.4 +27.2
03 10.07 СВ 2 н/о н/о +8.2 +7.1 93 +7 +7 856.1 1010.6 +6.7 +27.2
06 10.07 СВ 1 н/о н/о +7.3 +6.0 91 +6 +6 856.5 1011.6 +6.7
09 10.07 ЮЗ 1 н/о н/о +17.2 +11.3 68 +18 +18 862.5 1012.5 +6.7 +17.9
12 10.07 ЮЗ 1 н/о н/о +22.1 +11.6 51 +24 +24 комфорт 863.4 1010.6 +6.7 +22.4
15 10.07 штиль 0 н/о н/о +20.8 +10.7 52 +22 +22 комфорт 861.6 1009.4 +20.8 +25.4
18 10.07 СВ 2 н/о н/о +13.1 +11.1 88 +13 +13 857.7 1009.5 +11.9 +25.4
21 10.07 СВ 2 н/о н/о +10.8 +9.0 89 +10 +10 856.3 1009.3 +10.8 +25.4
00 11.07 СВ 1 н/о н/о +8.1 +6.8 91 +7 +7 853.9 1008.1 +8.0 +25.4
03 11.07 штиль 0 н/о н/о +8.0 +6.9 93 +7 +7 851.9 1005.8 +6.8 +25.4
06 11.07 С 1 н/о н/о +14.4 +6.5 59 +15 +15 854.7 1005.3 +6.8
09 11.07 С 5 н/о н/о +21.2 +8.9 45 +22 +22 комфорт 857.8 1004.9 +6.8 +21.4
12 11.07 С 4 н/о н/о +25.9 +8.2 33 +26 +26 жарко 858.0 1002.5 +6.8 +26.3
15 11.07 С 3 н/о н/о +19.7 +7.9 46 +21 +21 комфорт 854.0 1001.5 +19.7 +26.3
18 11.07 С 2 н/о н/о +15.4 +6.7 56 +16 +16 852.3 1002.0 +15.1 +26.3
21 11.07 С 3 н/о н/о +15.8 +4.6 47 +16 +16 852.5 1002.0 +15.1 +26.3
00 12.07 С 2 н/о н/о +15.8 +3.9 45 +16 +16 852.2 1001.6 +15.1 +26.3
03 12.07 С 3 н/о н/о +14.6 +6.0 56 +14 +14 852.0 1002.1 +14.2 +26.3
06 12.07 З 2 н/о н/о +12.9 +10.8 87 +12 +12 853.3 1004.6 +12.9 0.2
09 12.07 СЗ 2 н/о н/о +12.3 +9.5 83 +12 +12 854.6 1006.4 +11.4 +12.6
12 12.07 С 2 н/о н/о +12.9 +9.9 82 +12 +12 854.3 1005.7 +11.4 +13.1 0.4
15 12.07 СЗ 1 н/о н/о +12.2 +9.0 81 +12 +12 854.4 1006.2 +12.2 +13.1
18 12.07 З 1 н/о н/о +11.1 +7.0 76 +11 +11 855.3 1007.9 +11.0 +13.1 0.4
21 12.07 С 1 н/о н/о +9.9 +7.5 85 +9 +9 855.4 1008.7 +8.8 +13.1
00 13.07 СВ 1 н/о н/о +7.6 +6.2 91 +7 +7 854.1 1008.6 +7.4 +13.1 1
03 13.07 СВ 1 н/о н/о +5.1 +3.9 92 +4 +4 853.0 1008.8 +5.1 +13.1
06 13.07 СВ 1 н/о н/о +5.6 +4.5 93 +4 +4 854.4 1010.1 +4.6 1
09 13.07 С 2 н/о н/о +14.4 +8.6 68 +14 +14 860.1 1011.4 +4.6 +14.4
12 13.07 З 3 н/о н/о +14.3 +6.9 61 +13 +13 859.1 1010.4 +4.6 +15.6 3
15 13.07 ЮЗ 3 н/о н/о +11.7 +7.4 75 +10 +10 858.7 1011.5 +11.7 +15.6
18 13.07 СВ 2 н/о н/о +9.4 +8.0 91 +8 +8 859.2 1013.5 +8.6 +15.6 5
21 13.07 штиль 0 н/о н/о +8.3 +7.2 93 +7 +7 860.0 1015.1 +7.9 +15.6
00 14.07 штиль 0 н/о н/о +7.3 +6.4 94 +6 +6 860.6 1016.4 +7.1 +15.6 5
03 14.07 ЮЗ 1 н/о н/о +6.0 +4.9 93 +5 +5 860.7 1017.3 +5.6 +15.6
06 14.07 штиль 0 н/о н/о +4.9 +4.0 94 +4 +4 861.8 1019.3 +4.9 5
09 14.07 ЮЗ 1 н/о н/о +12.6 +9.4 81 +13 +13 867.4 1021.0 +4.9 +13.0
12 14.07 Ю 2 н/о н/о +14.5 +5.3 54 +15 +15 867.5 1019.8 +4.9 +15.3
15 14.07 Ю 1 н/о н/о +14.6 +6.5 58 +15 +15 867.8 1020.1 +14.1 +17.3
18 14.07 Ю 1 н/о н/о +9.3 +5.5 77 +9 +9 865.9 1021.3 +9.0 +17.3
21 14.07 штиль 0 н/о н/о +5.1 +3.7 91 +4 +4 864.4 1022.3 +4.9 +17.3
00 15.07 штиль 0 н/о н/о +5.1 +3.7 91 +4 +4 864.4 1022.3 +4.9 +17.3
03 15.07 штиль 0 н/о н/о +1.5 +0.4 92 0 0 861.7 1021.5 +1.4 +17.3
06 15.07 штиль 0 н/о н/о +1.1 +0.2 94 -0 -0 861.8 1021.8 +0.9
09 15.07 СВ 2 н/о н/о +16.3 +5.0 47 +17 +17 870.8 1022.5 +0.9 +16.7
12 15.07 В 2 н/о н/о +18.9 +3.2 35 +20 +20 869.7 1019.6 +0.9 +19.3 0.2
15 15.07 В 2 н/о н/о +16.2 +6.9 54 +17 +17 867.0 1018.2 +16.2 +20.0
18 15.07 штиль 0 н/о н/о +7.2 +4.8 85 +6 +6 862.5 1018.7 +7.0 +20.0 0.2
21 15.07 штиль 0 н/о н/о +4.3 +2.6 89 +3 +3 860.3 1017.9 +4.1 +20.0
00 16.07 С 2 н/о н/о +9.1 +3.7 69 +8 +8 862.2 1017.1 +3.6 +20.0 0.2

 

Местоположение метеостанции Malmesbury (Южная Африка): широта -33.46 долгота 18.72 высота над уровнем моря 102 м.

В архиве по умолчанию представлена погода в Malmesbury за последнюю неделю. Архивные данные за месяц целиком и за предыдущие месяцы, начиная с января 2011 года, Вы можете получить, выбрав интересующий диапазон дат из раскрывающегося списка и нажав кнопку "Ввод!".


*Определитесь, кто Вы:
робот инопланетянин человек

Внимание! Время в таблицах - всемирное. Для получения местного времени необходимо прибавить поправку, которая в Malmesbury равна 2 ч.

Смотрите также архив погоды в соседних городах и на ближайших метеорологических станциях:

Погода в Paarl (Южная Африка) (37 км)
Погода в Robben Island (Южная Африка) (50 км)
Погода в Ysterplant (Южная Африка) (53 км)
Погода в Table Bay (Южная Африка) (56 км)
Погода в Cape Town Airport (Южная Африка) (57 км)
Погода в Cape Town Int Airport (Южная Африка) (57 км)
Погода в Cape Town (Южная Африка) (61 км)
Погода в Geelbek (Южная Африка) (63 км)
Погода в Worcester (Южная Африка) (72 км)
Погода в Langebaanweg (Южная Африка) (76 км)

Пояснения к столбцам:

Ветер - указаны скорость ветра в м/с - средняя за 10 мин, порывы в срок и между сроками (в фигурных скобках) и направление, откуда дует ветер: С - северный, СВ - северо-восточный, В - восточный, ЮВ - юго-восточный, Ю - южный, ЮЗ - юго-западный, З - западный, СЗ - северо-западный.
Видимость - горизонтальная дальность видимости в метрах или километрах. При видимости от 1 до 10 км при отсутствии осадков обычно наблюдается дымка, при ухудшении видимости до 1 км и менее - туман. В сухую погоду видимость может ухудшаться дымом, пылью или мглою.
Явления - указаны атмосферные явления, наблюдавшиеся в срок или в последний час перед сроком; фигурными скобками обозначены явления, наблюдавшиеся между сроками (за 1-3 часа до срока); квадратными скобками обозначены град или гололедные отложения с указанием их диаметра в мм.
Облачность - указаны через наклонную черту общая и нижняя облачность в баллах и высота нижней границы облаков в метрах; квадратными скобками обозначены формы облаков: Ci - перистые, Cs - перисто-слоистые, Cc - перисто-кучевые, Ac - высококучевые, As - высокослоистые, Sc - слоисто-кучевые, Ns - слоисто-дождевые, Cu - кучевые, Cb - кучево-дождевые. Подробнее классификацию облаков см. в Атласе облаков (PDF).
T - Температура воздуха - температура, измеренная на высоте 2 м над землей.
Td - Температура точки росы - температура, при понижении до которой содержащийся в воздухе водяной пар достигнет насыщения.
f - Относительная влажность воздуха - влажноcть воздуха, измеренная на высоте 2 м над землей.
Te - Эффективная температура - температура, которую ощущает одетый по сезону человек в тени. Характеристика душности погоды. При расчете учитывается влияние влажности воздуха и скорости ветра на теплоощущения человека.
Tes - Эффективная температура на солнце - температура, которую ощущает человек, с поправкой на солнечный нагрев. Характеристика знойности погоды. Зависит от высоты солнца над горизонтом, облачности и скорости ветра. Ночью, в пасмурную погоду, а также при ветре 12 м/с и более поправка равна нулю.
P - Атмосферное давление - приведенное к уровню моря атмосферное давление.
Po - Атмосферное давление - измеренное на уровне метеостанции атмосферное давление.
Tmin - Минимальная температура - минимум температуры воздуха на высоте 2 м над землей.
Tmax - Максимальная температура - максимум температуры воздуха на высоте 2 м над землей.
R - Количество осадков - Количество выпавших осадков за период времени, мм. При наведении курсора мыши на число - период времени, за который выпало указанное количество осадков.
R24 - Количество осадков - Количество выпавших осадков за 24 часа, мм.
S - Снежный покров - Высота снежного покрова, см. При наведении курсора мыши на число - состояние снежного покрова и степень покрытия местности в баллах.